GHIGA EGCC-EGCC

Flight info

Callsign GHIGA
Flight time 0h 4m
Altitude 1500
Route CIRCUITS
Aircraft C172/L-GNS530/MODE C

Departure

Time 2026-05-06 20:11
Airport Manchester Airport (EGCC)

Arrival

Time 2026-05-06 20:15
Airport Manchester Airport (EGCC)
Time Latitude Longitude Altitude Speed Heading
2026-05-06 19:50 53.35899 -2.27988 234 ft 0 kts 276°
2026-05-06 20:03 53.35899 -2.27992 234 ft 1 kts 244°
2026-05-06 20:03 53.35890 -2.27987 234 ft 1 kts 97°
2026-05-06 20:03 53.35890 -2.27975 234 ft 0 kts 90°
2026-05-06 20:03 53.35890 -2.27965 235 ft 5 kts 85°
2026-05-06 20:04 53.35891 -2.27918 235 ft 3 kts 91°
2026-05-06 20:04 53.35888 -2.27885 235 ft 3 kts 118°
2026-05-06 20:04 53.35867 -2.27858 235 ft 4 kts 159°
2026-05-06 20:04 53.35838 -2.27853 235 ft 5 kts 186°
2026-05-06 20:05 53.35803 -2.27864 234 ft 5 kts 192°
2026-05-06 20:05 53.35762 -2.27872 234 ft 6 kts 185°
2026-05-06 20:05 53.35713 -2.27879 234 ft 8 kts 182°
2026-05-06 20:05 53.35647 -2.27892 233 ft 11 kts 185°
2026-05-06 20:06 53.35567 -2.27902 232 ft 12 kts 183°
2026-05-06 20:06 53.35489 -2.27917 231 ft 10 kts 185°
2026-05-06 20:06 53.35429 -2.27965 230 ft 10 kts 224°
2026-05-06 20:06 53.35378 -2.28050 229 ft 11 kts 224°
2026-05-06 20:07 53.35320 -2.28143 228 ft 12 kts 223°
2026-05-06 20:07 53.35249 -2.28193 227 ft 10 kts 178°
2026-05-06 20:07 53.35227 -2.28193 226 ft 0 kts 186°
2026-05-06 20:08 53.35222 -2.28193 226 ft 6 kts 179°
2026-05-06 20:08 53.35147 -2.28202 225 ft 9 kts 182°
2026-05-06 20:09 53.35096 -2.28151 225 ft 8 kts 140°
2026-05-06 20:09 53.35083 -2.28096 226 ft 0 kts 52°
2026-05-06 20:10 53.35088 -2.28085 226 ft 11 kts 51°
2026-05-06 20:10 53.35247 -2.27757 231 ft 59 kts 50°
2026-05-06 20:10 53.35585 -2.27096 296 ft 84 kts 53°
2026-05-06 20:11 53.35961 -2.26355 574 ft 79 kts 57°
2026-05-06 20:11 53.36131 -2.25535 852 ft 75 kts 79°
2026-05-06 20:11 53.36084 -2.24716 1138 ft 77 kts 117°
2026-05-06 20:11 53.35783 -2.23873 1274 ft 89 kts 129°
2026-05-06 20:12 53.35147 -2.23783 1327 ft 106 kts 210°
2026-05-06 20:12 53.34595 -2.24642 1263 ft 108 kts 222°
2026-05-06 20:12 53.34126 -2.25599 1319 ft 105 kts 227°
2026-05-06 20:12 53.33698 -2.26573 1318 ft 102 kts 227°
2026-05-06 20:13 53.33274 -2.27517 1347 ft 98 kts 226°
2026-05-06 20:13 53.32839 -2.28471 1236 ft 104 kts 225°
2026-05-06 20:13 53.32433 -2.29323 1148 ft 90 kts 231°
2026-05-06 20:13 53.32141 -2.30227 1164 ft 86 kts 240°
2026-05-06 20:14 53.31874 -2.31119 1149 ft 84 kts 237°
2026-05-06 20:14 53.31681 -2.32026 1086 ft 91 kts 274°
2026-05-06 20:14 53.31925 -2.32966 1040 ft 82 kts 316°
2026-05-06 20:14 53.32356 -2.32892 821 ft 72 kts 60°
2026-05-06 20:15 53.32646 -2.32229 563 ft 68 kts 57°
2026-05-06 20:15 53.32944 -2.31599 394 ft 68 kts 56°
2026-05-06 20:15 53.33238 -2.30986 236 ft 67 kts 56°
2026-05-06 20:15 53.33475 -2.30507 197 ft 39 kts 57°
2026-05-06 20:16 53.33670 -2.30083 210 ft 65 kts 52°
2026-05-06 20:16 53.34003 -2.29430 347 ft 76 kts 51°
2026-05-06 20:16 53.34340 -2.28771 615 ft 75 kts 50°
2026-05-06 20:16 53.34662 -2.28087 896 ft 76 kts 52°
2026-05-06 20:17 53.35045 -2.27388 1064 ft 91 kts 51°
2026-05-06 20:17 53.35287 -2.26450 1225 ft 91 kts 95°
2026-05-06 20:17 53.34866 -2.25787 1233 ft 103 kts 184°
2026-05-06 20:17 53.34273 -2.26625 1202 ft 118 kts 224°
2026-05-06 20:18 53.33727 -2.27667 1203 ft 122 kts 223°
2026-05-06 20:18 53.33147 -2.28701 1201 ft 122 kts 220°
2026-05-06 20:18 53.32612 -2.29648 1236 ft 101 kts 218°
2026-05-06 20:18 53.32134 -2.30478 1261 ft 97 kts 219°
2026-05-06 20:19 53.31716 -2.31313 1206 ft 83 kts 237°
2026-05-06 20:19 53.31715 -2.32307 1011 ft 90 kts 297°
2026-05-06 20:19 53.32084 -2.33165 911 ft 88 kts 340°
2026-05-06 20:19 53.32503 -2.32724 695 ft 82 kts 62°
2026-05-06 20:20 53.32806 -2.31897 468 ft 83 kts 60°
2026-05-06 20:20 53.33124 -2.31218 298 ft 67 kts 53°
2026-05-06 20:20 53.33384 -2.30689 196 ft 47 kts 51°
2026-05-06 20:20 53.33553 -2.30326 200 ft 48 kts 52°
2026-05-06 20:21 53.33853 -2.29734 250 ft 78 kts 49°
2026-05-06 20:21 53.34202 -2.29041 505 ft 74 kts 51°
2026-05-06 20:21 53.34529 -2.28376 794 ft 71 kts 53°
2026-05-06 20:21 53.34853 -2.27755 1147 ft 69 kts 51°
2026-05-06 20:22 53.35126 -2.27008 1175 ft 78 kts 89°
2026-05-06 20:22 53.34926 -2.26143 1201 ft 80 kts 129°
2026-05-06 20:22 53.34415 -2.26271 1224 ft 94 kts 220°
2026-05-06 20:22 53.33963 -2.27100 1188 ft 96 kts 220°
2026-05-06 20:23 53.33505 -2.27955 1207 ft 102 kts 221°
2026-05-06 20:23 53.33057 -2.28822 1201 ft 98 kts 223°
2026-05-06 20:23 53.32650 -2.29734 1220 ft 97 kts 229°
2026-05-06 20:23 53.32279 -2.30713 1199 ft 102 kts 231°
2026-05-06 20:24 53.31901 -2.31698 1096 ft 99 kts 231°
2026-05-06 20:24 53.31538 -2.32665 1109 ft 98 kts 231°
2026-05-06 20:24 53.31172 -2.33636 1150 ft 101 kts 230°
2026-05-06 20:24 53.30783 -2.34601 1185 ft 98 kts 231°
2026-05-06 20:25 53.30413 -2.35571 1249 ft 99 kts 232°
2026-05-06 20:25 53.30374 -2.36622 1303 ft 99 kts 301°
2026-05-06 20:25 53.30792 -2.37467 1312 ft 92 kts 351°
2026-05-06 20:25 53.31261 -2.36862 1145 ft 94 kts 61°
2026-05-06 20:26 53.31592 -2.35902 1104 ft 97 kts 63°
2026-05-06 20:26 53.31950 -2.34917 970 ft 101 kts 59°
2026-05-06 20:26 53.32348 -2.33957 877 ft 99 kts 56°
2026-05-06 20:26 53.32747 -2.33057 796 ft 89 kts 58°
2026-05-06 20:27 53.33076 -2.32266 656 ft 81 kts 56°
2026-05-06 20:27 53.33456 -2.31501 548 ft 88 kts 53°
2026-05-06 20:27 53.33798 -2.30778 470 ft 69 kts 54°
2026-05-06 20:27 53.34093 -2.30164 373 ft 68 kts 51°
2026-05-06 20:28 53.34394 -2.29519 333 ft 72 kts 53°
2026-05-06 20:28 53.34700 -2.28888 249 ft 64 kts 52°
2026-05-06 20:28 53.34940 -2.28397 223 ft 41 kts 58°
2026-05-06 20:28 53.35071 -2.28158 225 ft 13 kts 48°
2026-05-06 20:29 53.35108 -2.28165 225 ft 9 kts 316°
2026-05-06 20:29 53.35180 -2.28201 226 ft 11 kts
2026-05-06 20:29 53.35209 -2.28197 226 ft 0 kts
2026-05-06 20:29 53.35238 -2.28191 226 ft 13 kts
2026-05-06 20:30 53.35318 -2.28177 228 ft 13 kts
2026-05-06 20:30 53.35493 -2.28159 230 ft 13 kts 323°
2026-05-06 20:30 53.35492 -2.28233 229 ft 2 kts 275°
2026-05-06 20:31 53.35506 -2.28243 229 ft 0 kts 31°